[[{"header":{"parameterUnit":"m.s-1","parameterCategory":1,"la1":30.2991,"la2":30.254,"lo1":-89.0895,"lo2":-89.0444,"dy":0.0017,"dx":0.0017,"nx":28,"ny":28,"refTime":"2023-11-12T03:00:00:Z","depth":0,"parameterNumber":2,"parameterNumberName":"U-component_of_WINDS"},"data":[0,0,0,0,0,0,0,0,0,0,0,0,0,0,0,0,0,0,0,0,0,0,0,0,0,0,0,0,0,0,0,0,0,0,0,0,0,0,0,0,0,0,0,0,0,0,0,0,0,0,0,0,0,0,0,0,0,0,-3.802,-3.802,0,-3.8078,-3.8079,-3.8079,-3.7996,-3.7993,-3.799,-3.7987,-3.805,-3.8054,-3.8058,0,0,0,0,0,0,0,0,0,0,0,0,0,-3.7838,-3.7842,-3.802,-3.802,-3.8021,-3.8078,-3.8079,-3.808,-3.7997,-3.7993,-3.7989,-3.7986,-3.8048,-3.8053,-3.8059,0,0,0,0,0,0,0,0,0,0,0,0,0,-3.7909,-3.7843,-3.802,-3.7987,-3.7984,-3.8078,-3.8079,-3.808,-3.7997,-3.7993,-3.7988,-3.7984,-3.8046,-3.8053,-3.8059,-3.8189,0,0,-3.808,-3.8082,0,0,0,0,0,0,0,0,-3.7905,-3.7916,-3.7991,-3.7989,-3.7986,-3.8025,-3.8037,-3.8116,-3.7998,-3.7992,-3.7987,-3.7982,-3.8045,-3.8052,-3.8072,-3.8192,-3.8194,-3.808,-3.8084,-3.8087,-3.8089,0,0,0,0,0,0,0,-3.79,-3.7913,-3.8043,-3.7992,-3.7989,-3.7969,-3.7974,-3.8052,-3.8043,-3.7993,-3.7987,-3.7995,-3.8043,-3.8066,-3.8073,-3.8195,-3.808,-3.8086,-3.809,-3.8093,-3.8425,-3.8429,0,0,0,0,0,0,-3.7899,-3.7909,-3.8041,-3.8045,-3.7934,-3.7976,-3.7982,-3.8017,-3.8042,-3.8041,-3.7998,-3.799,-3.8057,-3.8066,-3.8075,-3.8229,-3.8087,-3.8093,-3.8097,-3.842,-3.8426,-3.8431,0,0,0,0,0,0,-3.7895,-3.7912,-3.8039,-3.7975,-3.799,-3.7984,-3.8024,-3.8021,-3.8044,-3.8046,-3.8044,-3.8023,-3.8054,-3.8066,-3.8161,-3.823,-3.8096,-3.8102,-3.8414,-3.8422,-3.8428,-3.8539,0,0,0,0,0,0,-3.7891,-3.7911,-3.796,-3.7977,-3.7994,-3.8124,-3.8029,-3.8025,-3.8055,-3.8045,-3.8069,-3.8069,-3.8051,-3.8152,-3.8168,-3.8237,-3.8107,-3.8408,-3.8418,-3.8426,-3.8529,-3.8549,-3.8566,0,0,0,0,0,-3.7884,-3.7989,-3.7963,-3.7979,-3.8055,-3.8128,-3.8137,-3.8114,-3.8061,-3.811,-3.8112,-3.8068,-3.822,-3.8162,-3.818,-3.8252,-3.8404,-3.8415,-3.8425,-3.8521,-3.8545,-3.8565,0,0,0,0,0,0,-3.7981,-3.799,-3.7962,-3.8074,-3.8101,-3.8114,-3.8175,-3.8141,-3.8183,-3.8173,-3.8142,-3.8149,-3.8251,-3.826,-3.8196,-3.8379,-3.8303,-3.8318,-3.8369,-3.8392,-3.841,-3.8407,-3.8113,0,0,0,0,0,-3.8015,-3.8073,-3.8078,-3.8178,-3.8192,-3.8182,-3.8213,-3.8192,-3.8219,-3.823,-3.8238,-3.8266,-3.832,-3.8356,-3.8406,-3.8529,-3.8534,-3.8587,-3.8606,-3.8621,-3.8635,-3.8701,-3.8726,-3.8467,-3.8467,-3.8467,0,0,-3.8087,-3.8099,-3.8138,-3.8197,-3.8215,-3.8277,-3.8192,-3.826,-3.8306,-3.824,-3.8331,-3.8338,-3.8368,-3.8478,-3.8527,-3.8489,-3.8707,-3.8635,-3.8647,-3.8653,-3.8715,-3.874,-3.8762,-3.8474,-3.8473,-3.8472,0,0,-3.8249,-3.8264,-3.8348,-3.8368,-3.8396,-3.8388,-3.8408,-3.8426,-3.8428,-3.8519,-3.8471,-3.8525,-3.8618,-3.8641,-3.8665,-3.8835,-3.8797,-3.8852,-3.895,-3.9015,-3.9036,-3.9053,-3.9116,-3.9138,-3.8865,-3.8866,-3.8866,0,-3.8335,-3.8425,-3.8396,-3.8469,-3.8497,-3.8439,-3.8525,-3.8545,-3.8589,-3.861,-3.8566,-3.8682,-3.8697,-3.8812,-3.8854,-3.8875,-3.8898,-3.885,-3.9035,-3.9052,-3.9069,-3.9128,-3.9151,-3.8872,-3.8872,-3.8871,-3.887,0,-3.853,-3.8594,-3.8658,-3.8701,-3.8736,-3.8815,-3.8799,-3.8838,-3.8814,-3.8811,-3.8904,-3.892,-3.8973,-3.8998,-3.8976,-3.911,-3.9086,-3.9039,-3.8963,-3.9101,-3.9156,-3.9178,-3.8882,-3.8879,-3.8878,-3.8876,0,0,-3.8757,-3.8782,-3.8806,-3.8825,-3.8851,-3.89,-3.8976,-3.9026,-3.9061,-3.9092,-3.9156,-3.9236,-3.9193,-3.922,-3.92,-3.9257,-3.9392,-3.9203,-3.9203,-3.9239,-3.9543,-3.958,-3.9607,-3.9366,-3.937,-3.9374,-3.9541,0,-3.892,-3.9052,-3.9028,-3.9156,-3.9214,-3.916,-3.9226,-3.925,-3.9249,-3.9299,-3.9297,-3.9355,-3.9293,-3.9309,-3.9363,-3.9365,-3.9454,-3.9352,-3.9427,-3.943,-3.9424,-3.9635,-3.9674,-3.9832,-3.9563,-3.9566,-3.9569,0,-3.9129,-3.9168,-3.9302,-3.9319,-3.9342,-3.9403,-3.9447,-3.9495,-3.9521,-3.9516,-3.9546,-3.9515,-3.9591,-3.9512,-3.9618,-3.9549,-3.9578,-3.9584,-3.9589,-3.9597,-3.951,-3.9651,-3.9881,-3.9906,-3.9602,-3.9599,-3.9597,0,-3.9283,-3.9369,-3.946,-3.9477,-3.9499,-3.9543,-3.9554,-3.9575,-3.9607,-3.9645,-3.9666,-3.9713,-3.974,-3.9777,-3.976,-3.9704,-3.987,-3.9789,-3.9869,-3.987,-3.9909,-3.9907,-4.0149,-3.9924,-3.9924,-3.9923,-3.9923,0,-3.947,-3.9554,-3.9529,-3.9586,-3.9679,-3.965,-3.9744,-3.9748,-3.9768,-3.9825,-3.9779,-3.9834,-3.9807,-3.986,-3.9846,-3.9937,-3.9949,-3.9948,-3.9944,-3.9954,-3.9954,-3.9974,-3.9963,-3.993,-3.9928,-3.9927,-3.9926,0,-3.9659,-3.9645,-3.9742,-3.9754,-3.9759,-3.9827,-3.9838,-3.9891,-3.9885,-3.9958,-3.9974,-3.9966,-4.0026,-4.0011,-4.0077,-4.0068,-4.0183,-4.0164,-4.0174,-4.017,-4.0253,-4.0246,-4.0518,-4.0553,-4.0303,-4.0306,-4.0308,0,-3.978,-3.9843,-3.9862,-3.9897,-3.9911,-3.9967,-3.9999,-3.9973,-4.0008,-4.0042,-4.0092,-4.0147,-4.019,-4.0288,-4.0289,-4.0339,-4.0323,-4.0414,-4.033,-4.0338,-4.0326,-4.0324,-4.0331,-4.0432,-4.0435,-4.0437,-4.0439,0,-3.9996,-3.9986,-4.0034,-4.0079,-4.0118,-4.0153,-4.0184,-4.0215,-4.019,-4.0233,-4.0293,-4.0326,-4.0392,-4.0449,-4.0495,-4.0507,-4.047,-4.0465,-4.0487,-4.0498,-4.0503,-4.0503,-4.0222,-4.046,-4.0458,-4.0456,-4.0455,-4.0454,-4.0156,-4.0211,-4.0232,-4.0287,-4.0307,-4.0336,-4.0387,-4.0387,-4.0437,-4.0488,-4.0469,-4.0539,-4.0563,-4.062,-4.0638,-4.0692,-4.0658,-4.0689,-4.0697,-4.0706,-4.0717,-4.0492,-4.07,-4.07,-4.0699,-4.0699,-4.0698,0,-4.0372,-4.0383,-4.0433,-4.0477,-4.052,-4.0479,-4.0511,-4.055,-4.0611,-4.0636,-4.0679,-4.0749,-4.0803,-4.0808,-4.0859,-4.0901,-4.0886,-4.0916,-4.0914,-4.0917,-4.0744,-4.0721,-4.0928,-4.0928,-4.0928,-4.0928,-4.0928,-4.0927,-4.049,-4.058,-4.0573,-4.0672,-4.0682,-4.0749,-4.0771,-4.0798,-4.0818,-4.0897,-4.0942,-4.0944,-4.0961,-4.1013,-4.1061,-4.1061,-4.1083,-4.112,-4.1114,-4.0952,-4.0929,-4.0908,-4.0886,-4.1124,-4.1125,-4.1283,-4.1284,-4.1286]},{"header":{"parameterUnit":"m.s-1","parameterCategory":1,"la1":30.2991,"la2":30.254,"lo1":-89.0895,"lo2":-89.0444,"dy":0.0017,"dx":0.0017,"nx":28,"ny":28,"refTime":"2023-11-12T03:00:00:Z","depth":0,"parameterNumber":3,"parameterNumberName":"V-component_of_WINDS"},"data":[0,0,0,0,0,0,0,0,0,0,0,0,0,0,0,0,0,0,0,0,0,0,0,0,0,0,0,0,0,0,0,0,0,0,0,0,0,0,0,0,0,0,0,0,0,0,0,0,0,0,0,0,0,0,0,0,0,0,-3.9466,-3.9466,0,-3.9463,-3.9463,-3.9463,-3.9421,-3.942,-3.9419,-3.9418,-3.9415,-3.9416,-3.9417,0,0,0,0,0,0,0,0,0,0,0,0,0,-3.9435,-3.9435,-3.9466,-3.9466,-3.9466,-3.9463,-3.9463,-3.9463,-3.9421,-3.942,-3.9419,-3.9418,-3.9415,-3.9416,-3.9417,0,0,0,0,0,0,0,0,0,0,0,0,0,-3.9442,-3.9436,-3.9466,-3.9445,-3.9443,-3.9463,-3.9463,-3.9463,-3.9422,-3.942,-3.9418,-3.9417,-3.9415,-3.9416,-3.9417,-3.9458,0,0,-3.9422,-3.9422,0,0,0,0,0,0,0,0,-3.9441,-3.9443,-3.9448,-3.9446,-3.9444,-3.9441,-3.9451,-3.9461,-3.9422,-3.943,-3.9418,-3.9416,-3.9425,-3.9426,-3.9429,-3.9458,-3.9458,-3.9422,-3.9423,-3.9423,-3.9424,0,0,0,0,0,0,0,-3.9441,-3.9443,-3.9465,-3.9448,-3.9446,-3.9435,-3.9434,-3.9453,-3.9436,-3.9429,-3.9426,-3.9426,-3.9424,-3.9427,-3.9428,-3.9458,-3.9422,-3.9423,-3.9424,-3.9424,-3.9519,-3.9521,0,0,0,0,0,0,-3.9443,-3.9443,-3.9465,-3.9465,-3.9439,-3.9437,-3.9436,-3.9443,-3.9436,-3.9433,-3.9427,-3.9424,-3.9426,-3.9427,-3.9428,-3.9474,-3.9423,-3.9424,-3.9425,-3.9517,-3.952,-3.9521,0,0,0,0,0,0,-3.9443,-3.9446,-3.9465,-3.9453,-3.9454,-3.9439,-3.9448,-3.9444,-3.9448,-3.9435,-3.9432,-3.9434,-3.9425,-3.9426,-3.9451,-3.9474,-3.9425,-3.9426,-3.9515,-3.9518,-3.952,-3.9568,0,0,0,0,0,0,-3.9442,-3.9446,-3.9461,-3.9453,-3.9455,-3.9488,-3.9449,-3.9445,-3.945,-3.9446,-3.944,-3.9438,-3.9423,-3.9449,-3.9452,-3.9475,-3.9427,-3.9513,-3.9517,-3.952,-3.9564,-3.9572,-3.9578,0,0,0,0,0,-3.9441,-3.9475,-3.9462,-3.9465,-3.9474,-3.9489,-3.949,-3.9473,-3.9452,-3.9467,-3.9459,-3.9438,-3.9471,-3.9452,-3.9455,-3.9478,-3.9512,-3.9516,-3.9519,-3.9561,-3.957,-3.9578,0,0,0,0,0,0,-3.9486,-3.9473,-3.9459,-3.9491,-3.9492,-3.9482,-3.9501,-3.9483,-3.9489,-3.9485,-3.9463,-3.9462,-3.949,-3.9487,-3.9466,-3.9517,-3.9488,-3.9492,-3.9518,-3.9527,-3.9533,-3.9534,-3.9429,0,0,0,0,0,-3.9499,-3.9512,-3.9501,-3.953,-3.9531,-3.9516,-3.9522,-3.9509,-3.9508,-3.9508,-3.9502,-3.9502,-3.9512,-3.9519,-3.9528,-3.9563,-3.9561,-3.9581,-3.9588,-3.9594,-3.9598,-3.9616,-3.9625,-3.9534,-3.9534,-3.9534,0,0,-3.9527,-3.9522,-3.9532,-3.9539,-3.9538,-3.9552,-3.9517,-3.9533,-3.9543,-3.951,-3.9533,-3.9529,-3.9527,-3.9558,-3.957,-3.9555,-3.9623,-3.9599,-3.9604,-3.9605,-3.9621,-3.963,-3.9637,-3.9536,-3.9536,-3.9536,0,0,-3.9585,-3.9583,-3.9607,-3.9606,-3.9605,-3.9594,-3.96,-3.9593,-3.9589,-3.9611,-3.9587,-3.9599,-3.9617,-3.9617,-3.9619,-3.9677,-3.9658,-3.9681,-3.9717,-3.9735,-3.9742,-3.9749,-3.9769,-3.9776,-3.9685,-3.9685,-3.9685,0,-3.962,-3.9641,-3.9622,-3.964,-3.9643,-3.9614,-3.9638,-3.9639,-3.964,-3.9643,-3.9626,-3.9648,-3.9645,-3.9675,-3.9689,-3.9692,-3.9698,-3.9681,-3.9743,-3.9749,-3.9754,-3.9773,-3.9781,-3.9688,-3.9688,-3.9687,-3.9687,0,-3.9684,-3.9698,-3.9718,-3.972,-3.9726,-3.9747,-3.973,-3.9739,-3.9725,-3.9716,-3.9739,-3.9735,-3.9742,-3.9748,-3.9735,-3.9776,-3.9766,-3.9747,-3.9717,-3.9766,-3.9784,-3.9791,-3.9692,-3.9691,-3.969,-3.9689,0,0,-3.977,-3.9761,-3.9768,-3.9768,-3.9764,-3.9775,-3.9795,-3.9801,-3.9809,-3.9811,-3.9826,-3.9842,-3.9824,-3.9827,-3.9813,-3.9829,-3.9875,-3.9807,-3.9807,-3.9819,-3.9919,-3.9933,-3.9942,-3.9862,-3.9863,-3.9864,-3.9919,0,-3.9825,-3.9858,-3.9841,-3.9876,-3.9889,-3.9862,-3.9878,-3.9878,-3.987,-3.988,-3.9872,-3.9883,-3.9858,-3.986,-3.9874,-3.9866,-3.9894,-3.9862,-3.9876,-3.9877,-3.9877,-3.9951,-3.9967,-4.0018,-3.9926,-3.9927,-3.9928,0,-3.9895,-3.9899,-3.9936,-3.9929,-3.9933,-3.9949,-3.9954,-3.9963,-3.9962,-3.9955,-3.9959,-3.9941,-3.996,-3.993,-3.9955,-3.9934,-3.9939,-3.9935,-3.9937,-3.9937,-3.9905,-3.9953,-4.0035,-4.0042,-3.9938,-3.9937,-3.9937,0,-3.9953,-3.9969,-3.9992,-3.9993,-3.9986,-3.9997,-3.9995,-3.9992,-3.9997,-4.0001,-4.0004,-4.0011,-4.0014,-4.0019,-4.0004,-3.9984,-4.0031,-4.0001,-4.0026,-4.0026,-4.0037,-4.0036,-4.0119,-4.0041,-4.0041,-4.004,-4.004,0,-4.0017,-4.004,-4.0018,-4.0032,-4.0057,-4.0038,-4.0063,-4.0057,-4.0055,-4.0068,-4.0044,-4.0057,-4.0036,-4.0047,-4.0035,-4.0057,-4.0059,-4.0054,-4.005,-4.0056,-4.0056,-4.0058,-4.0054,-4.0042,-4.0042,-4.0042,-4.0041,0,-4.0086,-4.0073,-4.0096,-4.0087,-4.0085,-4.0104,-4.0096,-4.0109,-4.01,-4.0117,-4.0119,-4.0105,-4.0116,-4.0101,-4.0111,-4.0103,-4.0133,-4.0125,-4.0134,-4.0131,-4.0157,-4.0155,-4.0244,-4.0255,-4.017,-4.0171,-4.0171,0,-4.0128,-4.0145,-4.0137,-4.0144,-4.0143,-4.0154,-4.0159,-4.0141,-4.0147,-4.0146,-4.0159,-4.0168,-4.0174,-4.0193,-4.0183,-4.0191,-4.0182,-4.0213,-4.0183,-4.0187,-4.0182,-4.018,-4.0182,-4.0219,-4.022,-4.022,-4.0221,0,-4.0202,-4.0194,-4.0202,-4.0208,-4.0214,-4.0218,-4.022,-4.0227,-4.0207,-4.0215,-4.0226,-4.0231,-4.024,-4.025,-4.0254,-4.0252,-4.0233,-4.0231,-4.0237,-4.0242,-4.0246,-4.0244,-4.015,-4.0229,-4.0228,-4.0227,-4.0227,-4.0227,-4.0258,-4.0272,-4.0269,-4.0278,-4.0278,-4.028,-4.0291,-4.0284,-4.0292,-4.0298,-4.0287,-4.0301,-4.0298,-4.0303,-4.0302,-4.0313,-4.0299,-4.0308,-4.031,-4.0313,-4.0316,-4.0245,-4.0313,-4.0313,-4.0313,-4.0313,-4.0313,0,-4.0331,-4.0328,-4.0337,-4.034,-4.0347,-4.0329,-4.033,-4.0338,-4.035,-4.0349,-4.0356,-4.0368,-4.0377,-4.0368,-4.0375,-4.0385,-4.0377,-4.0387,-4.0386,-4.0386,-4.0328,-4.0322,-4.0394,-4.0394,-4.0394,-4.0394,-4.0394,-4.0394,-4.037,-4.0392,-4.0384,-4.0405,-4.0401,-4.0414,-4.0416,-4.0418,-4.0417,-4.0432,-4.0439,-4.0433,-4.0429,-4.0436,-4.0443,-4.044,-4.0444,-4.0457,-4.0452,-4.0398,-4.039,-4.0382,-4.0376,-4.0458,-4.0459,-4.0508,-4.0509,-4.0509]}]]